Location: Tierz
(42.1336°N, 0.3549°W)
Time: 23:23:24
(UTC+00:00)

CZ-4C R/B - Pass Details

Date: 29 October 2020
Orbit: 623 x 1378 km, 63.4° (Epoch: 05 December)

Event Time Altitude Azimuth Distance (km) Brightness Sun altitude
Rises 20:28:21 0° 325° (NW) 3,844 6.2 -39.1°
Reaches altitude 10° 20:30:51 10° 328° (NNW) 2,987 5.5 -39.6°
Enters shadow 20:34:49 37° 337° (NNW) 1,774 4.0 -40.2°
